TimeCDT,TemperatureF,Dew PointF,Humidity,Sea Level PressureIn,VisibilityMPH,Wind Direction,Wind SpeedMPH,Gust SpeedMPH,PrecipitationIn,Events,Conditions,WindDirDegrees,DateUTC
12:14 AM,37.6,22.8,55,30.05,10.0,West,3.5,-,N/A,,Overcast,260,2012-10-10 05:14:00
12:34 AM,37.6,23.0,56,30.05,10.0,West,4.6,-,N/A,,Overcast,260,2012-10-10 05:34:00
12:54 AM,37.6,23.0,56,30.05,10.0,West,3.5,-,N/A,,Overcast,260,2012-10-10 05:54:00
1:14 AM,38.5,25.2,59,30.05,10.0,WNW,9.2,-,N/A,,Overcast,290,2012-10-10 06:14:00
1:34 AM,38.7,26.6,62,30.05,10.0,West,5.8,-,N/A,,Overcast,280,2012-10-10 06:34:00
1:54 AM,38.7,27.3,64,30.05,10.0,West,3.5,-,N/A,,Overcast,280,2012-10-10 06:54:00
2:14 AM,38.3,27.1,64,30.05,10.0,West,5.8,-,N/A,,Overcast,260,2012-10-10 07:14:00
2:34 AM,38.7,25.5,59,30.05,10.0,West,5.8,-,N/A,,Overcast,270,2012-10-10 07:34:00
2:54 AM,38.3,25.5,60,30.05,10.0,West,5.8,-,N/A,,Overcast,260,2012-10-10 07:54:00
3:14 AM,38.1,25.5,61,30.05,10.0,West,5.8,-,N/A,,Overcast,280,2012-10-10 08:14:00
3:34 AM,37.8,25.7,62,30.05,10.0,WNW,6.9,-,N/A,,Scattered Clouds,290,2012-10-10 08:34:00
3:54 AM,36.5,25.7,65,30.06,10.0,WNW,6.9,-,N/A,,Clear,300,2012-10-10 08:54:00
4:14 AM,35.6,26.1,68,30.07,10.0,WNW,5.8,-,N/A,,Clear,290,2012-10-10 09:14:00
4:34 AM,34.9,26.2,71,30.07,10.0,West,5.8,-,N/A,,Clear,280,2012-10-10 09:34:00
4:54 AM,33.6,25.9,73,30.07,10.0,West,5.8,-,N/A,,Clear,280,2012-10-10 09:54:00
5:14 AM,32.0,24.8,75,30.08,10.0,West,4.6,-,N/A,,Clear,260,2012-10-10 10:14:00
5:34 AM,31.8,24.6,75,30.08,10.0,WSW,5.8,-,N/A,,Clear,250,2012-10-10 10:34:00
5:54 AM,31.6,24.6,75,30.09,10.0,WSW,8.1,-,N/A,,Clear,250,2012-10-10 10:54:00
6:14 AM,30.9,24.4,77,30.09,10.0,WSW,6.9,-,N/A,,Clear,250,2012-10-10 11:14:00
6:34 AM,27.5,22.6,82,30.09,10.0,WSW,8.1,-,N/A,,Clear,250,2012-10-10 11:34:00
6:54 AM,29.8,24.3,80,30.10,10.0,WSW,6.9,-,N/A,,Clear,250,2012-10-10 11:54:00
7:13 AM,29.8,24.3,80,30.11,10.0,WSW,6.9,-,N/A,,Scattered Clouds,250,2012-10-10 12:13:00
7:34 AM,29.7,24.3,80,30.11,10.0,WSW,6.9,-,N/A,,Scattered Clouds,250,2012-10-10 12:34:00
7:54 AM,29.8,24.6,81,30.11,10.0,WSW,8.1,-,N/A,,Clear,250,2012-10-10 12:54:00
8:34 AM,32.7,26.6,78,30.12,10.0,WSW,8.1,-,N/A,,Clear,250,2012-10-10 13:34:00
8:54 AM,34.5,27.3,75,30.12,10.0,WSW,6.9,-,N/A,,Clear,250,2012-10-10 13:54:00
9:14 AM,35.8,27.9,73,30.12,10.0,WSW,9.2,-,N/A,,Clear,240,2012-10-10 14:14:00
9:34 AM,38.8,28.2,66,30.12,10.0,West,8.1,-,N/A,,Clear,260,2012-10-10 14:34:00
9:54 AM,41.5,28.2,59,30.11,10.0,West,9.2,-,N/A,,Clear,260,2012-10-10 14:54:00
10:14 AM,42.8,27.3,54,30.12,10.0,West,9.2,18.4,N/A,,Clear,260,2012-10-10 15:14:00
10:34 AM,43.3,27.5,54,30.12,10.0,WSW,12.7,16.1,N/A,,Clear,240,2012-10-10 15:34:00
10:53 AM,44.8,26.2,48,30.12,10.0,WSW,11.5,18.4,N/A,,Clear,250,2012-10-10 15:53:00
11:14 AM,46.8,24.4,42,30.11,10.0,West,11.5,16.1,N/A,,Clear,260,2012-10-10 16:14:00
11:54 AM,48.7,21.4,34,30.11,10.0,WSW,13.8,18.4,N/A,,Clear,250,2012-10-10 16:54:00
12:14 PM,49.5,20.7,32,30.10,10.0,WSW,12.7,18.4,N/A,,Clear,250,2012-10-10 17:14:00
12:34 PM,50.5,20.8,31,30.09,10.0,West,10.4,17.3,N/A,,Clear,270,2012-10-10 17:34:00
12:54 PM,50.5,20.3,30,30.09,10.0,WSW,8.1,19.6,N/A,,Clear,250,2012-10-10 17:54:00
1:14 PM,51.4,20.3,29,30.08,10.0,WSW,9.2,18.4,N/A,,Clear,250,2012-10-10 18:14:00
1:34 PM,51.8,20.5,29,30.07,10.0,West,9.2,19.6,N/A,,Clear,260,2012-10-10 18:34:00
1:54 PM,52.5,21.0,29,30.06,10.0,West,11.5,19.6,N/A,,Clear,270,2012-10-10 18:54:00
2:14 PM,53.4,20.5,28,30.04,10.0,West,11.5,17.3,N/A,,Clear,270,2012-10-10 19:14:00
2:34 PM,54.0,19.4,26,30.03,10.0,West,10.4,20.7,N/A,,Clear,260,2012-10-10 19:34:00
2:53 PM,54.7,19.2,25,30.02,10.0,SW,11.5,21.9,N/A,,Clear,230,2012-10-10 19:53:00
3:13 PM,55.8,19.4,24,30.01,10.0,SW,15.0,19.6,N/A,,Clear,230,2012-10-10 20:13:00
3:34 PM,55.8,20.3,25,30.00,10.0,WSW,10.4,18.4,N/A,,Mostly Cloudy,250,2012-10-10 20:34:00
3:54 PM,56.3,20.5,25,29.99,10.0,SW,10.4,16.1,N/A,,Overcast,230,2012-10-10 20:54:00
4:14 PM,56.7,20.8,25,29.98,10.0,WSW,10.4,18.4,N/A,,Scattered Clouds,240,2012-10-10 21:14:00
4:34 PM,57.4,21.2,25,29.97,10.0,WSW,9.2,-,N/A,,Clear,250,2012-10-10 21:34:00
4:54 PM,57.6,21.9,25,29.96,10.0,West,8.1,-,N/A,,Clear,270,2012-10-10 21:54:00
5:14 PM,58.3,23.0,26,29.95,10.0,WSW,11.5,-,N/A,,Clear,250,2012-10-10 22:14:00
5:34 PM,58.5,23.7,26,29.94,10.0,WSW,12.7,18.4,N/A,,Clear,250,2012-10-10 22:34:00
5:54 PM,58.5,24.3,27,29.94,10.0,SW,16.1,19.6,N/A,,Scattered Clouds,230,2012-10-10 22:54:00
6:14 PM,57.2,24.8,29,29.94,10.0,SW,12.7,18.4,N/A,,Scattered Clouds,220,2012-10-10 23:14:00
6:34 PM,55.4,24.8,31,29.92,10.0,SSW,9.2,-,N/A,,Scattered Clouds,200,2012-10-10 23:34:00
6:54 PM,54.5,25.3,32,29.92,10.0,SSW,6.9,-,N/A,,Mostly Cloudy,200,2012-10-10 23:54:00
7:14 PM,52.9,25.2,34,29.91,10.0,South,6.9,-,N/A,,Scattered Clouds,190,2012-10-11 00:14:00
7:34 PM,52.2,25.0,35,29.91,10.0,South,6.9,-,N/A,,Clear,180,2012-10-11 00:34:00
7:54 PM,51.4,25.7,37,29.90,10.0,South,9.2,-,N/A,,Clear,190,2012-10-11 00:54:00
8:13 PM,51.3,26.6,38,29.89,10.0,SSW,11.5,-,N/A,,Clear,200,2012-10-11 01:13:00
8:34 PM,51.8,27.3,39,29.89,10.0,South,11.5,-,N/A,,Scattered Clouds,190,2012-10-11 01:34:00
8:54 PM,51.8,27.5,39,29.88,10.0,SSW,13.8,-,N/A,,Mostly Cloudy,200,2012-10-11 01:54:00
9:14 PM,51.8,27.9,40,29.87,10.0,SSW,17.3,21.9,N/A,,Mostly Cloudy,200,2012-10-11 02:14:00
9:34 PM,52.2,27.9,39,29.87,10.0,SSW,17.3,-,N/A,,Scattered Clouds,200,2012-10-11 02:34:00
9:54 PM,51.8,28.2,40,29.86,10.0,SSW,17.3,26.5,N/A,,Clear,210,2012-10-11 02:54:00
10:14 PM,52.2,28.2,40,29.85,10.0,SSW,19.6,24.2,N/A,,Scattered Clouds,210,2012-10-11 03:14:00
10:34 PM,52.7,28.0,39,29.84,10.0,SSW,19.6,26.5,N/A,,Scattered Clouds,210,2012-10-11 03:34:00
10:54 PM,52.7,28.4,39,29.84,10.0,SSW,19.6,26.5,N/A,,Mostly Cloudy,210,2012-10-11 03:54:00
11:14 PM,53.1,28.4,39,29.84,10.0,SSW,21.9,29.9,N/A,,Scattered Clouds,210,2012-10-11 04:14:00
11:34 PM,52.9,28.4,39,29.84,10.0,SW,23.0,28.8,N/A,,Clear,220,2012-10-11 04:34:00
11:54 PM,52.2,28.4,40,29.84,10.0,SW,20.7,25.3,N/A,,Clear,220,2012-10-11 04:54:00